| time (UTC) | temp F | wind direction | speed knots | gust knots | rain 1hr in | rain 24hr in | rain mn in | humidity % | barometer mb |
| 20260902054705 | 60 | 44 | 0.0 | 0.0 | 0.00 | 0.00 | 0.00 | 78 | 1017.8 |
| 20260902054205 | 60 | 45 | 0.0 | 0.0 | 0.00 | 0.00 | 0.00 | 78 | 1017.8 |
| 20260902053704 | 60 | 43 | 0.0 | 0.0 | 0.00 | 0.00 | 0.00 | 78 | 1018.0 |
| 20260902053205 | 60 | 43 | 0.0 | 0.0 | 0.00 | 0.00 | 0.00 | 78 | 1017.9 |
| 20260902052704 | 60 | 46 | 0.0 | 0.0 | 0.00 | 0.00 | 0.00 | 78 | 1018.0 |
| 20260902052205 | 60 | 53 | 0.0 | 0.0 | 0.00 | 0.00 | 0.00 | 78 | 1018.0 |
| 20260902051704 | 61 | 53 | 0.0 | 0.0 | 0.00 | 0.00 | 0.00 | 78 | 1018.0 |
| 20260902050704 | 61 | 53 | 0.0 | 1.7 | 0.00 | 0.00 | 0.00 | 78 | 1017.9 |
| 20260902045705 | 61 | 53 | 0.0 | 2.6 | 0.00 | 0.00 | 0.00 | 78 | 1017.9 |
| 20260902045204 | 61 | 53 | 0.0 | 1.7 | 0.00 | 0.00 | 0.00 | 78 | 1017.9 |
| 20260902044705 | 61 | 28 | 0.0 | 0.0 | 0.00 | 0.00 | 0.00 | 77 | 1017.9 |
| 20260902044204 | 61 | 21 | 0.0 | 1.7 | 0.00 | 0.00 | 0.00 | 77 | 1017.9 |
| 20260902043704 | 61 | 44 | 0.0 | 1.7 | 0.00 | 0.00 | 0.00 | 77 | 1017.9 |
| 20260902043204 | 61 | 44 | 0.0 | 2.6 | 0.00 | 0.00 | 0.00 | 77 | 1017.9 |
| 20260902042704 | 61 | 26 | 0.0 | 2.6 | 0.00 | 0.00 | 0.00 | 77 | 1017.8 |
| 20260902042205 | 62 | 26 | 0.0 | 2.6 | 0.00 | 0.00 | 0.00 | 77 | 1017.8 |
| 20260902041704 | 62 | 26 | 0.0 | 0.0 | 0.00 | 0.00 | 0.00 | 78 | 1017.8 |
| 20260902041204 | 62 | 274 | 0.0 | 0.0 | 0.00 | 0.00 | 0.00 | 78 | 1017.8 |
| 20260902040704 | 62 | 274 | 0.0 | 2.6 | 0.00 | 0.00 | 0.00 | 78 | 1017.7 |
| 20260902040204 | 62 | 274 | 0.0 | 2.6 | 0.00 | 0.00 | 0.00 | 78 | 1017.6 |
| 20260902035204 | 62 | 274 | 1.7 | 4.3 | 0.00 | 0.00 | 0.00 | 78 | 1017.4 |
| 20260902034704 | 62 | 254 | 1.7 | 4.3 | 0.00 | 0.00 | 0.00 | 78 | 1017.4 |
| 20260902034204 | 63 | 249 | 1.7 | 4.3 | 0.00 | 0.00 | 0.00 | 78 | 1017.3 |
| 20260902033704 | 63 | 235 | 0.9 | 4.3 | 0.00 | 0.00 | 0.00 | 78 | 1017.2 |
| 20260902033204 | 63 | 248 | 0.9 | 4.3 | 0.00 | 0.00 | 0.00 | 78 | 1017.2 |
| 20260902032705 | 63 | 249 | 1.7 | 4.3 | 0.00 | 0.00 | 0.00 | 78 | 1017.2 |
| 20260902032205 | 63 | 221 | 1.7 | 4.3 | 0.00 | 0.00 | 0.00 | 78 | 1017.1 |
| 20260902031704 | 63 | 250 | 1.7 | 4.3 | 0.00 | 0.00 | 0.00 | 78 | 1017.1 |
| 20260902031205 | 63 | 248 | 2.6 | 5.2 | 0.00 | 0.00 | 0.00 | 78 | 1017.1 |
| 20260902030704 | 63 | 259 | 2.6 | 6.1 | 0.00 | 0.00 | 0.00 | 78 | 1017.1 |
| 20260902030204 | 64 | 251 | 2.6 | 6.1 | 0.00 | 0.00 | 0.00 | 77 | 1016.9 |
| 20260902025204 | 64 | 254 | 2.6 | 6.1 | 0.00 | 0.00 | 0.00 | 77 | 1016.9 |
| 20260902024704 | 64 | 236 | 2.6 | 6.1 | 0.00 | 0.00 | 0.00 | 77 | 1016.9 |
| 20260902024204 | 64 | 245 | 2.6 | 8.7 | 0.00 | 0.00 | 0.00 | 77 | 1016.8 |
| 20260902023704 | 64 | 273 | 3.5 | 9.6 | 0.00 | 0.00 | 0.00 | 76 | 1016.7 |
| 20260902023204 | 65 | 247 | 4.3 | 9.6 | 0.00 | 0.00 | 0.00 | 76 | 1016.7 |
| 20260902022705 | 65 | 234 | 4.3 | 9.6 | 0.00 | 0.00 | 0.00 | 76 | 1016.8 |
| 20260902021704 | 65 | 229 | 5.2 | 10.4 | 0.00 | 0.00 | 0.00 | 75 | 1016.6 |
| 20260902021204 | 66 | 255 | 6.1 | 10.4 | 0.00 | 0.00 | 0.00 | 74 | 1016.6 |
| 20260902020704 | 66 | 238 | 6.1 | 10.4 | 0.00 | 0.00 | 0.00 | 73 | 1016.7 |
| 20260902020205 | 66 | 234 | 6.1 | 9.6 | 0.00 | 0.00 | 0.00 | 72 | 1016.6 |
| 20260902015704 | 66 | 274 | 5.2 | 9.6 | 0.00 | 0.00 | 0.00 | 71 | 1016.5 |
| 20260902014204 | 67 | 263 | 6.1 | 11.3 | 0.00 | 0.00 | 0.00 | 72 | 1016.5 |
| 20260902013204 | 67 | 279 | 6.1 | 13.0 | 0.00 | 0.00 | 0.00 | 73 | 1016.5 |
| 20260902012705 | 67 | 221 | 6.1 | 13.0 | 0.00 | 0.00 | 0.00 | 73 | 1016.5 |
| 20260902012205 | 67 | 215 | 5.2 | 12.2 | 0.00 | 0.00 | 0.00 | 74 | 1016.5 |
| 20260902011705 | 67 | 280 | 5.2 | 12.2 | 0.00 | 0.00 | 0.00 | 75 | 1016.5 |
| 20260902011205 | 67 | 221 | 6.1 | 12.2 | 0.00 | 0.00 | 0.00 | 75 | 1016.4 |
| 20260902010705 | 67 | 236 | 5.2 | 12.2 | 0.00 | 0.00 | 0.00 | 75 | 1016.4 |
| 20260902005704 | 67 | 254 | 6.1 | 14.8 | 0.00 | 0.00 | 0.00 | 74 | 1016.3 |
| 20260902004704 | 68 | 194 | 5.2 | 14.8 | 0.00 | 0.00 | 0.00 | 73 | 1016.4 |
| 20260902004205 | 68 | 244 | 6.1 | 12.2 | 0.00 | 0.00 | 0.00 | 73 | 1016.4 |
| 20260902003704 | 68 | 224 | 6.1 | 12.2 | 0.00 | 0.00 | 0.00 | 74 | 1016.4 |
| 20260902003205 | 68 | 287 | 5.2 | 15.6 | 0.00 | 0.00 | 0.00 | 74 | 1016.4 |
| 20260902002704 | 68 | 171 | 6.1 | 15.6 | 0.00 | 0.00 | 0.00 | 74 | 1016.4 |
| 20260902002204 | 68 | 232 | 6.1 | 15.6 | 0.00 | 0.00 | 0.00 | 74 | 1016.4 |
| 20260902001705 | 68 | 201 | 6.1 | 12.2 | 0.00 | 0.00 | 0.00 | 74 | 1016.4 |
| 20260902000205 | 68 | 254 | 5.2 | 12.2 | 0.00 | 0.00 | 0.00 | 76 | 1016.4 |
| 20260901235704 | 68 | 265 | 6.1 | 12.2 | 0.00 | 0.00 | 0.00 | 76 | 1016.4 |
| 20260901235205 | 68 | 184 | 6.1 | 13.9 | 0.00 | 0.00 | 0.00 | 76 | 1016.4 |
| 20260901234705 | 68 | 270 | 5.2 | 13.9 | 0.00 | 0.00 | 0.00 | 77 | 1016.5 |
| 20260901234205 | 67 | 173 | 6.1 | 14.8 | 0.00 | 0.00 | 0.00 | 78 | 1016.5 |
| 20260901233704 | 67 | 214 | 6.1 | 14.8 | 0.00 | 0.00 | 0.00 | 78 | 1016.5 |
| 20260901233204 | 67 | 210 | 6.1 | 14.8 | 0.00 | 0.00 | 0.00 | 78 | 1016.6 |
| 20260901232705 | 68 | 178 | 6.1 | 13.0 | 0.00 | 0.00 | 0.00 | 77 | 1016.7 |
| 20260901232204 | 67 | 253 | 6.1 | 13.0 | 0.00 | 0.00 | 0.00 | 78 | 1016.7 |
| 20260901231704 | 67 | 204 | 7.0 | 13.9 | 0.00 | 0.00 | 0.00 | 79 | 1016.7 |
| 20260901231204 | 67 | 212 | 7.0 | 13.9 | 0.00 | 0.00 | 0.00 | 79 | 1016.8 |
| 20260901230705 | 67 | 266 | 6.1 | 13.9 | 0.00 | 0.00 | 0.00 | 79 | 1016.7 |
| 20260901230205 | 67 | 225 | 7.8 | 13.9 | 0.00 | 0.00 | 0.00 | 79 | 1016.9 |
| 20260901225705 | 67 | 176 | 7.8 | 14.8 | 0.00 | 0.00 | 0.00 | 79 | 1016.8 |
| 20260901225204 | 67 | 188 | 7.0 | 14.8 | 0.00 | 0.00 | 0.00 | 79 | 1016.8 |
| 20260901224704 | 67 | 193 | 7.8 | 14.8 | 0.00 | 0.00 | 0.00 | 79 | 1016.9 |
| 20260901224204 | 67 | 224 | 7.0 | 14.8 | 0.00 | 0.00 | 0.00 | 78 | 1016.8 |
| 20260901223204 | 66 | 202 | 7.8 | 14.8 | 0.00 | 0.00 | 0.00 | 80 | 1016.9 |
| 20260901222704 | 65 | 207 | 8.7 | 13.9 | 0.00 | 0.00 | 0.00 | 81 | 1017.0 |
| 20260901222204 | 65 | 243 | 7.8 | 14.8 | 0.00 | 0.00 | 0.00 | 81 | 1017.0 |
| 20260901221204 | 66 | 217 | 7.8 | 14.8 | 0.00 | 0.00 | 0.00 | 79 | 1017.0 |
| 20260901220704 | 66 | 187 | 7.8 | 13.0 | 0.00 | 0.00 | 0.00 | 78 | 1017.1 |
| 20260901215704 | 67 | 217 | 7.0 | 14.8 | 0.00 | 0.00 | 0.00 | 78 | 1017.2 |
| 20260901215204 | 67 | 201 | 6.1 | 14.8 | 0.00 | 0.00 | 0.00 | 77 | 1017.2 |
| 20260901214704 | 67 | 254 | 5.2 | 13.9 | 0.00 | 0.00 | 0.00 | 77 | 1017.2 |
| 20260901214204 | 67 | 215 | 6.1 | 14.8 | 0.00 | 0.00 | 0.00 | 78 | 1017.2 |
| 20260901213705 | 67 | 188 | 7.0 | 14.8 | 0.00 | 0.00 | 0.00 | 78 | 1017.2 |
| 20260901213204 | 66 | 225 | 7.0 | 13.0 | 0.00 | 0.00 | 0.00 | 77 | 1017.2 |
| 20260901212705 | 66 | 198 | 7.0 | 13.0 | 0.00 | 0.00 | 0.00 | 80 | 1017.2 |
| 20260901212204 | 65 | 190 | 7.0 | 13.9 | 0.00 | 0.00 | 0.00 | 80 | 1017.2 |
| 20260901211704 | 66 | 188 | 7.0 | 13.9 | 0.00 | 0.00 | 0.00 | 80 | 1017.2 |
| 20260901211204 | 66 | 192 | 7.0 | 12.2 | 0.00 | 0.00 | 0.00 | 81 | 1017.3 |
| 20260901210705 | 66 | 177 | 6.1 | 13.9 | 0.00 | 0.00 | 0.00 | 80 | 1017.3 |
| 20260901210204 | 66 | 171 | 7.0 | 13.9 | 0.00 | 0.00 | 0.00 | 81 | 1017.4 |
| 20260901205704 | 66 | 167 | 7.0 | 14.8 | 0.00 | 0.00 | 0.00 | 81 | 1017.4 |
| 20260901205204 | 65 | 219 | 7.0 | 14.8 | 0.00 | 0.00 | 0.00 | 81 | 1017.5 |
| 20260901204704 | 66 | 203 | 7.0 | 14.8 | 0.00 | 0.00 | 0.00 | 82 | 1017.4 |
| 20260901204205 | 65 | 193 | 7.0 | 12.2 | 0.00 | 0.00 | 0.00 | 83 | 1017.5 |
| 20260901203705 | 65 | 222 | 7.0 | 13.0 | 0.00 | 0.00 | 0.00 | 83 | 1017.5 |
| 20260901202704 | 66 | 206 | 6.1 | 14.8 | 0.00 | 0.00 | 0.00 | 82 | 1017.7 |
| 20260901201705 | 66 | 202 | 6.1 | 11.3 | 0.00 | 0.00 | 0.00 | 83 | 1017.6 |
| 20260901201204 | 65 | 236 | 7.0 | 13.0 | 0.00 | 0.00 | 0.00 | 83 | 1017.7 |
| 20260901200705 | 65 | 222 | 7.0 | 13.0 | 0.00 | 0.00 | 0.00 | 82 | 1017.8 |
| 20260901200204 | 66 | 188 | 7.0 | 13.0 | 0.00 | 0.00 | 0.00 | 82 | 1017.7 |
| 20260901195704 | 66 | 191 | 6.1 | 10.4 | 0.00 | 0.00 | 0.00 | 82 | 1017.7 |
| 20260901195204 | 66 | 265 | 5.2 | 8.7 | 0.00 | 0.00 | 0.00 | 82 | 1017.7 |
| 20260901194705 | 65 | 213 | 5.2 | 9.6 | 0.00 | 0.00 | 0.00 | 83 | 1017.7 |
| 20260901194204 | 64 | 270 | 4.3 | 9.6 | 0.00 | 0.00 | 0.00 | 83 | 1017.7 |
| 20260901193704 | 64 | 207 | 5.2 | 9.6 | 0.00 | 0.00 | 0.00 | 85 | 1017.9 |
| 20260901193205 | 64 | 223 | 5.2 | 9.6 | 0.00 | 0.00 | 0.00 | 85 | 1017.9 |
| 20260901192705 | 64 | 209 | 5.2 | 9.6 | 0.00 | 0.00 | 0.00 | 85 | 1017.9 |
| 20260901191704 | 64 | 244 | 5.2 | 8.7 | 0.00 | 0.00 | 0.00 | 84 | 1018.0 |
| 20260901190704 | 64 | 190 | 5.2 | 9.6 | 0.00 | 0.00 | 0.00 | 82 | 1017.9 |
| 20260901185705 | 65 | 174 | 4.3 | 8.7 | 0.00 | 0.00 | 0.00 | 81 | 1017.9 |
| 20260901185204 | 66 | 217 | 3.5 | 8.7 | 0.00 | 0.00 | 0.00 | 82 | 1017.9 |
| 20260901184704 | 65 | 223 | 4.3 | 8.7 | 0.00 | 0.00 | 0.00 | 81 | 1017.8 |
| 20260901184204 | 65 | 265 | 4.3 | 7.8 | 0.00 | 0.00 | 0.00 | 80 | 1017.9 |
| 20260901183704 | 66 | 232 | 4.3 | 7.8 | 0.00 | 0.00 | 0.00 | 79 | 1017.8 |
| 20260901183204 | 66 | 243 | 3.5 | 7.8 | 0.00 | 0.00 | 0.00 | 79 | 1017.9 |
| 20260901182705 | 66 | 215 | 4.3 | 7.8 | 0.00 | 0.00 | 0.00 | 79 | 1017.8 |
| 20260901180705 | 65 | 153 | 3.5 | 7.0 | 0.00 | 0.00 | 0.00 | 77 | 1017.6 |
| 20260901180204 | 65 | 184 | 3.5 | 7.0 | 0.00 | 0.00 | 0.00 | 78 | 1017.7 |
| 20260901175204 | 64 | 238 | 4.3 | 7.0 | 0.00 | 0.00 | 0.00 | 80 | 1017.7 |
| 20260901174204 | 63 | 182 | 4.3 | 7.8 | 0.00 | 0.00 | 0.00 | 79 | 1017.7 |
| 20260901173704 | 64 | 182 | 4.3 | 7.8 | 0.00 | 0.00 | 0.00 | 80 | 1017.8 |
| 20260901173204 | 64 | 142 | 4.3 | 6.1 | 0.00 | 0.00 | 0.00 | 79 | 1017.6 |
| 20260901172705 | 64 | 178 | 3.5 | 8.7 | 0.00 | 0.00 | 0.00 | 78 | 1017.6 |
| 20260901172205 | 64 | 156 | 3.5 | 8.7 | 0.00 | 0.00 | 0.00 | 78 | 1017.5 |
| 20260901171205 | 65 | 134 | 4.3 | 8.7 | 0.00 | 0.00 | 0.00 | 77 | 1017.5 |
| 20260901170705 | 65 | 155 | 5.2 | 7.0 | 0.00 | 0.00 | 0.00 | 73 | 1017.3 |
| 20260901170204 | 65 | 99 | 4.3 | 7.0 | 0.00 | 0.00 | 0.00 | 70 | 1017.3 |
| 20260901165205 | 65 | 67 | 3.5 | 6.1 | 0.00 | 0.00 | 0.00 | 73 | 1017.1 |
| 20260901164205 | 64 | 176 | 2.6 | 6.1 | 0.00 | 0.00 | 0.00 | 77 | 1017.2 |
| 20260901163704 | 64 | 150 | 1.7 | 6.1 | 0.00 | 0.00 | 0.00 | 78 | 1017.3 |
| 20260901163205 | 63 | 152 | 0.9 | 4.3 | 0.00 | 0.00 | 0.00 | 78 | 1017.3 |
| 20260901162704 | 63 | 183 | 1.7 | 4.3 | 0.00 | 0.00 | 0.00 | 78 | 1017.2 |
| 20260901162204 | 63 | 120 | 1.7 | 4.3 | 0.00 | 0.00 | 0.00 | 78 | 1017.3 |
| 20260901161704 | 63 | 211 | 0.0 | 0.9 | 0.00 | 0.00 | 0.00 | 78 | 1017.4 |
| 20260901161203 | 63 | 175 | 0.0 | 4.3 | 0.00 | 0.00 | 0.00 | 78 | 1017.4 |
| 20260901160705 | 62 | 175 | 0.9 | 4.3 | 0.00 | 0.00 | 0.00 | 77 | 1017.4 |
| 20260901160204 | 62 | 175 | 1.7 | 4.3 | 0.00 | 0.00 | 0.00 | 77 | 1017.3 |
| 20260901155204 | 62 | 119 | 0.9 | 2.6 | 0.00 | 0.00 | 0.00 | 77 | 1017.1 |
| 20260901154704 | 62 | 119 | 0.0 | 2.6 | 0.00 | 0.00 | 0.00 | 78 | 1017.0 |
| 20260901154204 | 62 | 138 | 0.0 | 2.6 | 0.00 | 0.00 | 0.00 | 79 | 1016.9 |
| 20260901153705 | 61 | 172 | 0.9 | 2.6 | 0.00 | 0.00 | 0.00 | 79 | 1016.7 |
| 20260901153204 | 61 | 120 | 0.9 | 1.7 | 0.00 | 0.00 | 0.00 | 80 | 1016.8 |
| 20260901152705 | 61 | 119 | 0.0 | 2.6 | 0.00 | 0.00 | 0.00 | 80 | 1016.8 |
| 20260901152204 | 61 | 120 | 0.0 | 3.5 | 0.00 | 0.00 | 0.00 | 80 | 1016.9 |
| 20260901151704 | 61 | 120 | 0.9 | 3.5 | 0.00 | 0.00 | 0.00 | 80 | 1016.9 |
| 20260901151204 | 61 | 119 | 0.9 | 3.5 | 0.00 | 0.00 | 0.00 | 79 | 1017.0 |
| 20260901150705 | 61 | 119 | 0.0 | 2.6 | 0.00 | 0.00 | 0.00 | 79 | 1017.0 |
| 20260901145704 | 61 | 190 | 0.9 | 3.5 | 0.00 | 0.00 | 0.00 | 80 | 1016.8 |
| 20260901144704 | 61 | 119 | 0.9 | 3.5 | 0.00 | 0.00 | 0.00 | 80 | 1016.6 |
| 20260901144204 | 61 | 123 | 0.0 | 0.0 | 0.00 | 0.00 | 0.00 | 80 | 1016.6 |
| 20260901143704 | 61 | 88 | 0.0 | 0.0 | 0.00 | 0.00 | 0.00 | 79 | 1016.5 |
| 20260901142705 | 61 | 88 | 0.0 | 0.0 | 0.00 | 0.00 | 0.00 | 79 | 1016.3 |
| 20260901142205 | 61 | 88 | 0.0 | 0.0 | 0.00 | 0.00 | 0.00 | 79 | 1016.3 |
| 20260901141704 | 61 | 88 | 0.0 | 0.0 | 0.00 | 0.00 | 0.00 | 79 | 1016.2 |
| 20260901141204 | 61 | 88 | 0.0 | 0.0 | 0.00 | 0.00 | 0.00 | 78 | 1016.2 |
| 20260901140204 | 61 | 111 | 0.0 | 0.0 | 0.00 | 0.00 | 0.00 | 78 | 1016.0 |
| 20260901135704 | 61 | 71 | 0.0 | 0.0 | 0.00 | 0.00 | 0.00 | 78 | 1015.8 |
| 20260901135204 | 61 | 71 | 0.0 | 0.0 | 0.00 | 0.00 | 0.00 | 77 | 1015.8 |
| 20260901134705 | 61 | 71 | 0.0 | 0.0 | 0.00 | 0.00 | 0.00 | 77 | 1015.8 |
| 20260901133704 | 61 | 234 | 0.0 | 0.0 | 0.00 | 0.00 | 0.00 | 77 | 1015.8 |
| 20260901132704 | 61 | 234 | 0.0 | 0.0 | 0.00 | 0.00 | 0.00 | 76 | 1015.7 |
| 20260901132205 | 61 | 234 | 0.0 | 0.0 | 0.00 | 0.00 | 0.00 | 76 | 1015.7 |
| 20260901130704 | 61 | 234 | 0.0 | 0.0 | 0.00 | 0.00 | 0.00 | 76 | 1015.7 |
| 20260901130204 | 60 | 234 | 0.0 | 0.0 | 0.00 | 0.00 | 0.00 | 75 | 1015.6 |
| 20260901125704 | 60 | 234 | 0.0 | 0.0 | 0.00 | 0.00 | 0.00 | 75 | 1015.5 |
| 20260901125204 | 60 | 234 | 0.0 | 0.0 | 0.00 | 0.00 | 0.00 | 75 | 1015.5 |
| 20260901124205 | 60 | 234 | 0.0 | 0.0 | 0.00 | 0.00 | 0.00 | 75 | 1015.4 |
| 20260901123705 | 60 | 234 | 0.0 | 0.0 | 0.00 | 0.00 | 0.00 | 74 | 1015.5 |
| 20260901122704 | 61 | 234 | 0.0 | 0.0 | 0.00 | 0.00 | 0.00 | 74 | 1015.5 |
| 20260901122205 | 60 | 234 | 0.0 | 0.0 | 0.00 | 0.00 | 0.00 | 74 | 1015.5 |
| 20260901121204 | 61 | 234 | 0.0 | 0.0 | 0.00 | 0.00 | 0.00 | 74 | 1015.5 |
| 20260901120705 | 61 | 234 | 0.0 | 0.0 | 0.00 | 0.00 | 0.00 | 74 | 1015.3 |
| 20260901120204 | 61 | 234 | 0.0 | 0.0 | 0.00 | 0.00 | 0.00 | 74 | 1015.3 |
| 20260901115705 | 61 | 234 | 0.0 | 0.0 | 0.00 | 0.00 | 0.00 | 74 | 1015.3 |
| 20260901115204 | 61 | 234 | 0.0 | 0.0 | 0.00 | 0.00 | 0.00 | 74 | 1015.3 |
| 20260901114704 | 61 | 234 | 0.0 | 0.0 | 0.00 | 0.00 | 0.00 | 74 | 1015.4 |
| 20260901114204 | 61 | 234 | 0.0 | 0.0 | 0.00 | 0.00 | 0.00 | 74 | 1015.4 |
| 20260901113704 | 61 | 234 | 0.0 | 0.0 | 0.00 | 0.00 | 0.00 | 74 | 1015.4 |
| 20260901113204 | 61 | 234 | 0.0 | 2.6 | 0.00 | 0.00 | 0.00 | 74 | 1015.5 |
| 20260901112705 | 61 | 234 | 0.0 | 2.6 | 0.00 | 0.00 | 0.00 | 74 | 1015.5 |
| 20260901111704 | 61 | 234 | 0.9 | 2.6 | 0.00 | 0.00 | 0.00 | 74 | 1015.6 |
| 20260901111205 | 61 | 234 | 0.9 | 2.6 | 0.00 | 0.00 | 0.00 | 74 | 1015.5 |
| 20260901110704 | 61 | 263 | 0.0 | 2.6 | 0.00 | 0.00 | 0.00 | 74 | 1015.3 |
| 20260901110205 | 61 | 318 | 0.0 | 3.5 | 0.00 | 0.00 | 0.00 | 74 | 1015.2 |
| 20260901105704 | 61 | 318 | 0.9 | 3.5 | 0.00 | 0.00 | 0.00 | 74 | 1015.4 |
| 20260901105204 | 61 | 318 | 0.0 | 3.5 | 0.00 | 0.00 | 0.00 | 74 | 1015.4 |
| 20260901104704 | 61 | 322 | 0.0 | 0.0 | 0.00 | 0.00 | 0.00 | 74 | 1015.3 |
| 20260901104205 | 61 | 35 | 0.0 | 0.9 | 0.00 | 0.00 | 0.00 | 74 | 1015.3 |
| 20260901103204 | 61 | 325 | 0.0 | 4.3 | 0.00 | 0.00 | 0.00 | 74 | 1015.3 |
| 20260901102204 | 61 | 242 | 1.7 | 4.3 | 0.00 | 0.00 | 0.00 | 74 | 1015.1 |
| 20260901101705 | 61 | 292 | 1.7 | 4.3 | 0.00 | 0.00 | 0.00 | 74 | 1015.2 |
| 20260901101205 | 61 | 286 | 1.7 | 4.3 | 0.00 | 0.00 | 0.00 | 74 | 1015.2 |
| 20260901100204 | 61 | 0 | 2.6 | 4.3 | 0.00 | 0.00 | 0.00 | 75 | 1015.4 |
| 20260901095705 | 61 | 293 | 1.7 | 4.3 | 0.00 | 0.00 | 0.00 | 75 | 1015.3 |
| 20260901095204 | 61 | 309 | 2.6 | 4.3 | 0.00 | 0.00 | 0.00 | 75 | 1015.3 |
| 20260901094705 | 61 | 283 | 2.6 | 4.3 | 0.00 | 0.00 | 0.00 | 75 | 1015.3 |
| 20260901094205 | 61 | 283 | 1.7 | 4.3 | 0.00 | 0.00 | 0.00 | 75 | 1015.2 |
| 20260901093204 | 61 | 285 | 0.9 | 2.6 | 0.00 | 0.00 | 0.00 | 76 | 1015.2 |
| 20260901092704 | 61 | 265 | 0.9 | 2.6 | 0.00 | 0.00 | 0.00 | 76 | 1015.1 |
| 20260901092204 | 61 | 292 | 0.9 | 2.6 | 0.00 | 0.00 | 0.00 | 76 | 1015.1 |
| 20260901091704 | 61 | 262 | 0.9 | 2.6 | 0.00 | 0.00 | 0.00 | 76 | 1015.0 |
| 20260901091205 | 61 | 262 | 0.0 | 0.0 | 0.00 | 0.00 | 0.00 | 76 | 1015.2 |
| 20260901090704 | 61 | 262 | 0.0 | 0.0 | 0.00 | 0.00 | 0.00 | 76 | 1015.2 |
| 20260901090204 | 61 | 262 | 0.0 | 0.0 | 0.00 | 0.00 | 0.00 | 76 | 1015.2 |
| 20260901085704 | 61 | 262 | 0.0 | 0.0 | 0.00 | 0.00 | 0.00 | 76 | 1015.1 |
| 20260901085204 | 61 | 262 | 0.0 | 0.0 | 0.00 | 0.00 | 0.00 | 76 | 1015.1 |
| 20260901084705 | 61 | 262 | 0.0 | 0.0 | 0.00 | 0.00 | 0.00 | 76 | 1015.1 |
| 20260901084205 | 61 | 282 | 0.0 | 0.0 | 0.00 | 0.00 | 0.00 | 76 | 1015.0 |
| 20260901083705 | 61 | 282 | 0.0 | 0.0 | 0.00 | 0.00 | 0.00 | 76 | 1015.0 |
| 20260901083204 | 61 | 282 | 0.0 | 0.0 | 0.00 | 0.00 | 0.00 | 76 | 1015.1 |
| 20260901082204 | 61 | 282 | 0.0 | 0.0 | 0.00 | 0.00 | 0.00 | 77 | 1015.1 |
| 20260901081704 | 61 | 282 | 0.0 | 0.0 | 0.00 | 0.00 | 0.00 | 77 | 1015.1 |
| 20260901081204 | 61 | 282 | 0.0 | 0.0 | 0.00 | 0.00 | 0.00 | 77 | 1015.1 |
| 20260901080705 | 61 | 282 | 0.0 | 1.7 | 0.00 | 0.00 | 0.00 | 77 | 1015.1 |
| 20260901075704 | 61 | 278 | 0.9 | 2.6 | 0.00 | 0.00 | 0.00 | 77 | 1015.1 |
| 20260901075205 | 61 | 289 | 0.9 | 2.6 | 0.00 | 0.00 | 0.00 | 77 | 1015.0 |
| 20260901074704 | 61 | 289 | 0.9 | 3.5 | 0.00 | 0.00 | 0.00 | 77 | 1015.1 |
| 20260901074205 | 61 | 285 | 0.9 | 3.5 | 0.00 | 0.00 | 0.00 | 77 | 1015.2 |
| 20260901073704 | 61 | 303 | 1.7 | 3.5 | 0.00 | 0.00 | 0.00 | 77 | 1015.2 |
| 20260901073204 | 61 | 333 | 1.7 | 4.3 | 0.00 | 0.00 | 0.00 | 78 | 1015.2 |
| 20260901072704 | 61 | 283 | 1.7 | 4.3 | 0.00 | 0.00 | 0.00 | 78 | 1015.2 |
| 20260901072204 | 61 | 320 | 1.7 | 4.3 | 0.00 | 0.00 | 0.00 | 78 | 1015.2 |
| 20260901071704 | 61 | 319 | 2.6 | 4.3 | 0.00 | 0.00 | 0.00 | 78 | 1015.1 |
| 20260901070705 | 61 | 306 | 1.7 | 4.3 | 0.00 | 0.00 | 0.00 | 78 | 1015.2 |
| 20260901070204 | 61 | 334 | 1.7 | 4.3 | 0.00 | 0.00 | 0.00 | 79 | 1015.1 |
| 20260901065704 | 61 | 261 | 1.7 | 6.1 | 0.00 | 0.00 | 0.00 | 79 | 1015.2 |
| 20260901065205 | 61 | 281 | 2.6 | 6.1 | 0.00 | 0.00 | 0.00 | 79 | 1015.2 |
| 20260901064704 | 61 | 288 | 1.7 | 4.3 | 0.00 | 0.00 | 0.00 | 80 | 1015.2 |
| 20260901064204 | 61 | 309 | 0.0 | 4.3 | 0.00 | 0.00 | 0.00 | 80 | 1015.2 |
| 20260901063704 | 61 | 306 | 0.9 | 4.3 | 0.00 | 0.00 | 0.00 | 81 | 1015.2 |
| 20260901062705 | 60 | 297 | 1.7 | 5.2 | 0.00 | 0.00 | 0.00 | 81 | 1015.2 |
| 20260901062204 | 60 | 295 | 2.6 | 5.2 | 0.00 | 0.00 | 0.00 | 82 | 1015.2 |
| 20260901061705 | 60 | 289 | 2.6 | 5.2 | 0.00 | 0.00 | 0.00 | 83 | 1015.2 |
| 20260901061205 | 60 | 275 | 1.7 | 3.5 | 0.00 | 0.00 | 0.00 | 84 | 1015.3 |
| 20260901060704 | 60 | 288 | 0.9 | 2.6 | 0.00 | 0.00 | 0.00 | 85 | 1015.3 |
| 20260901060205 | 60 | 245 | 0.9 | 2.6 | 0.00 | 0.00 | 0.00 | 85 | 1015.3 |
| 20260901055704 | 61 | 166 | 0.0 | 1.7 | 0.00 | 0.00 | 0.00 | 86 | 1015.2 |
| 20260901055204 | 61 | 166 | 0.0 | 2.6 | 0.00 | 0.00 | 0.00 | 86 | 1015.2 |